Эпиналь

Франция     48°10′33″N   6°27′12″E
темп.,
°C
ветер,
м/с
пор.,
м/с
влажн.,
%
обл.,
%
осадки,
мм/ч
давл.,
гПа
погр.,
м
1 марта, пн
пн101:00+2в12880 0.0 103227
04:00+1в12890 0.0 103122
07:000в11860 0.0 103122
10:00+7св11600 0.0 1030236
13:00+12ссв11480 0.0 1030567
16:00+12ссв22490 0.0 1028647
19:00+6в12750 0.0 102925
22:00+4юв12800 0.0 103022
2 марта, вт
вт201:00+3юв11770 0.0 103022
04:00+3вюв11760 0.0 103022
07:00+3юв11750 0.0 103122
10:00+10вюв00580 0.0 1031136
13:00+16с11471 0.0 1030533
16:00+15ссв22516 0.0 1029468
19:00+8св008138 0.0 103022
22:00+7ююв118410 0.0 103122
3 марта, ср
ср301:00+6ююв127935 0.0 103122
04:00+5ю22640 0.0 103024
07:00+5ю22690 0.0 103026
10:00+11ююз37616 0.0 1030445
13:00+14юз474813 0.0 1028666
16:00+14юз35537 0.0 1026631
19:00+8ююз227736 0.0 102623
22:00+6ю238039 0.0 102540
4 марта, чт
чт401:00+6ю238162 0.0 102450
04:00+6ююз2483100 0.0 102295
07:00+6ю3784100 0.5 1021245
10:00+8ююз478576 0.7 1020338
13:00+9ююз368887 3.4 1019311
16:00+10юз478365 0.4 1017758
19:00+7з249251 1.1 1017173
22:00+4зюз129625 0.0 101822
5 марта, пт
пт501:00+5юз119638 0.0 101847
04:00+4с369497 0.4 1018315
07:00+2ссв369598 1.0 1019396
10:00+2ссв4785100 0.1 1020516
13:00+4ссв467295 0.1 1021881
16:00+4ссв466697 0.0 10221093
19:00+2ссв497797 0.1 1024719
22:000св4107729 0.0 1027493